Vilalleons





Hora UTC 19:50
Temperatura 6.4 ºC
Humitat 97.0 %
Pressió 1023.3 hPa
Pluja 0.2 mm
Velocitat vent 0.0 km/h
Direcció vent SSE

Dades diàries 2020-01-29



Hora UTC (hivern +1h; estiu +2h)
Temperatura (ºC) Humitat (%) Pressió (hPa) Velocitat vent (km/h) Precipitació (mm)
Hora UTC Aire Humitat Pressió Vel. Dir. Vel. Max Dir. Intent. màx 5 min.
00:05 2.6 96.0 1020.6 3.2 ESE 3.2 0.0
00:10 2.4 96.0 1020.5 1.6 ESE 4.8 0.0
00:15 2.3 96.0 1020.5 1.6 ESE 3.2 0.0
00:20 2.2 96.0 1020.4 1.6 ESE 4.8 0.0
00:25 2.1 96.0 1020.4 3.2 ESE 4.8 0.0
00:30 2.2 97.0 1020.6 1.6 ESE 3.2 0.0
00:35 2.2 97.0 1020.6 1.6 ESE 3.2 0.0
00:40 2.2 97.0 1020.7 1.6 ESE 3.2 0.0
00:45 2.2 97.0 1020.7 1.6 ESE 3.2 0.0
00:50 2.1 96.0 1020.7 1.6 ESE 3.2 0.0
00:55 1.9 96.0 1020.7 3.2 ESE 3.2 0.0
01:00 1.9 97.0 1020.9 1.6 ESE 4.8 0.0
01:05 2.1 97.0 1020.9 3.2 ESE 4.8 0.0
01:10 1.9 97.0 1020.7 1.6 ESE 4.8 0.0
01:15 1.9 97.0 1020.7 4.8 ESE 4.8 0.0
01:20 2.0 97.0 1020.7 1.6 ESE 4.8 0.0
01:25 2.1 97.0 1020.7 1.6 ESE 4.8 0.0
01:30 2.2 97.0 1020.8 0.0 ESE 3.2 0.0
01:35 2.2 97.0 1020.6 3.2 ESE 3.2 0.0
01:40 1.9 96.0 1020.7 3.2 ESE 4.8 0.0
01:45 1.9 97.0 1020.6 1.6 ESE 4.8 0.0
01:50 1.8 97.0 1020.7 1.6 ESE 4.8 0.0
01:55 1.8 97.0 1020.9 3.2 ESE 4.8 0.0
02:00 1.8 97.0 1020.7 1.6 ESE 4.8 0.0
02:05 1.8 97.0 1020.8 3.2 ESE 4.8 0.0
02:10 1.8 97.0 1020.8 1.6 ESE 3.2 0.0
02:15 1.8 97.0 1020.9 3.2 ESE 4.8 0.0
02:20 1.8 97.0 1020.8 3.2 ESE 4.8 0.0
02:25 1.8 97.0 1020.7 3.2 ESE 4.8 0.0
02:30 1.9 97.0 1020.7 3.2 ESE 4.8 0.0
02:35 2.1 97.0 1020.7 1.6 ESE 4.8 0.0
02:40 2.1 97.0 1020.6 3.2 ESE 4.8 0.0
02:45 2.1 98.0 1020.4 1.6 ESE 4.8 0.0
02:50 2.2 98.0 1020.4 4.8 ESE 4.8 0.0
02:55 2.2 98.0 1020.5 4.8 SE 6.4 0.0
03:00 2.1 97.0 1020.4 3.2 SE 6.4 0.0
03:05 2.3 98.0 1020.4 3.2 SE 6.4 0.0
03:10 2.3 98.0 1020.3 3.2 SE 4.8 0.0
03:15 2.4 98.0 1020.3 1.6 SE 4.8 0.0
03:20 2.4 98.0 1020.5 3.2 SE 3.2 0.0
03:25 2.4 97.0 1020.5 3.2 SE 4.8 0.0
03:30 2.5 98.0 1020.3 3.2 SE 4.8 0.0
03:35 2.6 98.0 1020.2 3.2 SE 4.8 0.0
03:40 2.5 98.0 1020.1 3.2 SE 4.8 0.0
03:45 2.6 98.0 1020.2 1.6 SE 3.2 0.0
03:50 2.7 98.0 1020.4 3.2 SE 3.2 0.0
03:55 2.7 98.0 1020.4 3.2 SE 4.8 0.0
04:00 2.6 98.0 1020.4 3.2 SE 4.8 0.0
04:05 2.5 97.0 1020.5 3.2 SE 4.8 0.0
04:10 2.4 97.0 1020.5 4.8 SE 4.8 0.0
04:15 2.5 98.0 1020.6 3.2 SE 6.4 0.0
04:20 2.6 98.0 1020.5 1.6 SE 4.8 0.0
04:25 2.6 98.0 1020.6 1.6 SE 3.2 0.0
04:30 2.5 98.0 1020.6 1.6 SE 3.2 0.0
04:35 2.5 98.0 1020.6 0.0 SE 3.2 0.0
04:40 2.4 98.0 1020.6 1.6 SE 3.2 0.0
04:45 2.2 97.0 1020.6 1.6 SE 3.2 0.0
04:50 2.1 97.0 1020.8 1.6 SE 3.2 0.0
04:55 2.1 97.0 1020.7 1.6 SE 3.2 0.0
05:00 1.9 97.0 1020.6 1.6 SE 3.2 0.0
05:05 1.9 97.0 1020.7 0.0 SE 1.6 0.0
05:10 1.9 97.0 1020.9 0.0 SE 1.6 0.0
05:15 1.8 97.0 1021.0 0.0 SE 1.6 0.0
05:20 1.8 97.0 1021.0 1.6 SE 1.6 0.0
05:25 1.8 97.0 1021.0 1.6 SE 3.2 0.0
05:30 1.8 98.0 1020.9 1.6 SE 3.2 0.2
05:35 1.8 98.0 1021.0 3.2 SE 3.2 0.0
05:40 1.8 97.0 1021.1 0.0 SE 3.2 0.0
05:45 1.8 97.0 1021.2 0.0 SE 1.6 0.0
05:50 1.8 98.0 1021.3 1.6 SE 1.6 0.0
05:55 1.8 97.0 1021.4 0.0 SE 3.2 0.0
06:00 1.8 98.0 1021.3 1.6 SE 3.2 0.0
06:05 1.8 98.0 1021.5 1.6 SE 3.2 0.0
06:10 1.9 98.0 1021.4 0.0 SE 3.2 0.0
06:15 2.0 98.0 1021.3 3.2 SE 4.8 0.0
06:20 2.1 98.0 1021.3 1.6 SE 4.8 0.0
06:25 2.1 98.0 1021.4 0.0 SE 3.2 0.0
06:30 2.3 98.0 1021.7 3.2 SE 3.2 0.0
06:35 2.5 98.0 1021.8 0.0 SE 3.2 0.0
06:40 2.4 98.0 1021.9 1.6 SE 3.2 0.0
06:45 2.4 98.0 1021.8 1.6 SE 3.2 0.0
06:50 2.4 98.0 1021.6 0.0 SE 3.2 0.0
06:55 2.5 98.0 1021.8 0.0 SE 3.2 0.0
07:00 2.6 98.0 1022.0 0.0 SE 1.6 0.0
07:05 2.7 98.0 1021.9 1.6 SE 3.2 0.0
07:10 2.8 98.0 1021.7 0.0 SE 3.2 0.0
07:15 2.8 98.0 1021.8 0.0 SE 1.6 0.0
07:20 2.9 98.0 1022.0 0.0 SE 1.6 0.0
07:25 2.9 98.0 1022.0 0.0 SE 1.6 0.0
07:30 2.9 98.0 1022.1 0.0 SE 1.6 0.0
07:35 2.9 98.0 1022.4 3.2 SE 3.2 0.0
07:40 3.0 98.0 1022.5 0.0 SE 3.2 0.0
07:45 3.0 98.0 1022.4 1.6 SE 1.6 0.0
07:50 3.1 98.0 1022.4 0.0 SE 3.2 0.0
07:55 3.1 98.0 1022.4 0.0 SE 1.6 0.0
08:00 3.2 98.0 1022.5 0.0 SE 3.2 0.0
08:05 3.2 98.0 1022.6 1.6 SE 3.2 0.0
08:10 3.2 98.0 1022.6 1.6 SE 1.6 0.0
08:15 3.3 98.0 1022.6 0.0 SE 1.6 0.0
08:20 3.4 98.0 1022.5 0.0 SE 3.2 0.0
08:25 3.5 98.0 1022.5 1.6 SE 3.2 0.0
08:30 3.6 98.0 1022.7 1.6 SE 3.2 0.0
08:35 3.7 98.0 1022.6 1.6 SE 3.2 0.0
08:40 3.7 98.0 1022.6 4.8 W 4.8 0.0
08:45 3.7 98.0 1022.7 1.6 WSW 6.4 0.0
08:50 3.7 98.0 1022.8 1.6 WSW 6.4 0.0
08:55 3.7 98.0 1023.0 1.6 WNW 4.8 0.0
09:00 3.8 98.0 1023.1 1.6 WNW 4.8 0.0
09:05 3.8 98.0 1023.0 1.6 WNW 4.8 0.0
09:10 3.8 98.0 1023.0 0.0 NW 4.8 0.0
09:15 3.9 98.0 1023.0 0.0 NW 4.8 0.0
09:20 4.1 98.0 1023.2 3.2 NW 3.2 0.0
09:25 4.0 98.0 1023.2 1.6 NW 3.2 0.0
09:30 4.1 98.0 1023.3 0.0 NW 3.2 0.0
09:35 4.1 98.0 1023.4 1.6 NW 3.2 0.0
09:40 4.1 98.0 1023.3 1.6 NW 3.2 0.0
09:45 4.1 98.0 1023.4 0.0 NW 3.2 0.0
09:50 4.2 98.0 1023.6 3.2 NW 3.2 0.0
09:55 4.1 98.0 1023.5 1.6 NW 3.2 0.0
10:00 4.2 98.0 1023.4 0.0 NW 3.2 0.0
10:05 4.2 98.0 1023.6 0.0 NW 1.6 0.0
10:10 4.3 98.0 1023.6 3.2 ESE 6.4 0.0
10:15 4.5 98.0 1023.4 3.2 ESE 6.4 0.0
10:20 4.6 98.0 1023.6 0.0 S 8.0 0.0
10:25 4.8 98.0 1023.5 0.0 S 8.0 0.0
10:30 5.1 99.0 1023.5 1.6 S 1.6 0.0
10:35 5.3 99.0 1023.6 3.2 WSW 4.8 0.0
10:40 5.7 99.0 1023.6 3.2 W 4.8 0.0
10:45 6.1 99.0 1023.5 1.6 W 4.8 0.0
10:50 6.2 99.0 1023.7 0.0 NW 4.8 0.0
10:55 6.3 99.0 1023.6 3.2 NW 4.8 0.0
11:00 6.4 99.0 1023.5 4.8 NNW 8.0 0.0
11:05 6.4 98.0 1023.5 1.6 W 8.0 0.0
11:10 6.3 98.0 1023.6 3.2 NW 6.4 0.0
11:15 0.0
11:20 6.3 97.0 1023.3 3.2 WNW 6.4 0.0
11:25 6.1 96.0 1023.3 4.8 NNW 6.4 0.0
11:30 6.1 97.0 1023.3 3.2 WNW 6.4 0.0
11:35 6.1 97.0 1023.0 1.6 WNW 6.4 0.0
11:40 6.1 96.0 1023.1 3.2 NW 6.4 0.0
11:45 6.0 96.0 1023.0 0.0 W 4.8 0.0
11:50 5.9 96.0 1022.9 1.6 WSW 4.8 0.0
11:55 6.1 97.0 1022.9 3.2 WSW 4.8 0.0
12:00 6.3 96.0 1022.8 1.6 NW 4.8 0.0
12:05 6.5 97.0 1022.6 1.6 NW 4.8 0.0
12:10 6.7 95.0 1022.8 4.8 NW 4.8 0.0
12:15 0.0
12:20 7.2 95.0 1023.0 1.6 NW 3.2 0.0
12:25 7.4 93.0 1022.9 1.6 NW 4.8 0.0
12:30 7.8 93.0 1023.1 1.6 NW 4.8 0.0
12:35 8.0 91.0 1023.0 1.6 WNW 8.0 0.0
12:40 8.0 91.0 1023.0 3.2 NW 8.0 0.0
12:45 8.1 91.0 1022.8 3.2 NW 8.0 0.0
12:50 8.2 90.0 1022.8 1.6 NW 8.0 0.0
12:55 8.2 90.0 1022.6 4.8 WNW 8.0 0.0
13:00 8.2 89.0 1022.6 4.8 NW 6.4 0.0
13:05 8.3 89.0 1022.5 3.2 WNW 6.4 0.0
13:10 8.3 90.0 1022.2 3.2 W 4.8 0.0
13:15 8.4 90.0 1022.2 3.2 W 4.8 0.0
13:20 8.7 88.0 1022.1 1.6 W 4.8 0.0
13:25 8.9 87.0 1021.9 0.0 W 3.2 0.0
13:30 9.2 87.0 1021.9 3.2 W 3.2 0.0
13:35 9.6 86.0 1021.6 3.2 NW 4.8 0.0
13:40 9.8 85.0 1021.6 3.2 NNW 6.4 0.0
13:45 10.0 85.0 1021.4 1.6 W 6.4 0.0
13:50 10.2 84.0 1021.4 1.6 WNW 6.4 0.0
13:55 10.4 84.0 1021.5 1.6 NW 4.8 0.0
14:00 10.6 82.0 1021.1 1.6 WNW 4.8 0.0
14:05 10.8 82.0 1021.2 3.2 NW 4.8 0.0
14:10 11.1 81.0 1021.1 1.6 NW 4.8 0.0
14:15 0.0
14:20 11.1 81.0 1021.2 3.2 NW 9.7 0.0
14:25 11.0 83.0 1021.0 0.0 WNW 9.7 0.0
14:30 11.1 82.0 1021.2 1.6 WNW 4.8 0.0
14:35 11.1 81.0 1021.2 3.2 WNW 4.8 0.0
14:40 11.0 82.0 1021.1 1.6 WNW 4.8 0.0
14:45 10.9 80.0 1021.2 0.0 WNW 3.2 0.0
14:50 10.8 82.0 1021.2 1.6 WNW 3.2 0.0
14:55 10.8 83.0 1021.2 1.6 WNW 4.8 0.0
15:00 10.8 82.0 1021.2 1.6 WNW 4.8 0.0
15:05 11.0 82.0 1021.3 1.6 WNW 3.2 0.0
15:10 11.2 81.0 1021.4 1.6 WNW 3.2 0.0
15:15 0.0
15:20 12.0 77.0 1021.6 1.6 WNW 4.8 0.0
15:25 12.3 73.0 1021.4 1.6 WNW 3.2 0.0
15:30 12.6 73.0 1021.3 1.6 WNW 4.8 0.0
15:35 12.8 69.0 1021.5 1.6 NW 4.8 0.0
15:40 12.8 70.0 1021.3 3.2 NW 4.8 0.0
15:45 12.7 71.0 1021.4 0.0 NW 4.8 0.0
15:50 12.7 73.0 1021.4 0.0 NW 4.8 0.0
15:55 12.6 72.0 1021.5 1.6 NW 4.8 0.0
16:00 12.4 73.0 1021.6 3.2 NNW 4.8 0.0
16:05 12.2 74.0 1021.6 1.6 NNW 3.2 0.0
16:10 12.2 76.0 1021.6 0.0 NNW 3.2 0.0
16:15 0.0
16:20 11.7 80.0 1021.7 0.0 NNW 3.2 0.0
16:25 11.3 81.0 1021.8 0.0 NNW 1.6 0.0
16:30 10.8 82.0 1021.9 1.6 NNW 3.2 0.0
16:35 10.2 83.0 1021.9 3.2 NNW 4.8 0.0
16:40 9.6 84.0 1021.9 3.2 NNW 4.8 0.0
16:45 9.1 85.0 1021.9 3.2 NNW 4.8 0.0
16:50 8.6 87.0 1021.9 1.6 NNW 4.8 0.0
16:55 8.2 87.0 1021.8 3.2 ESE 4.8 0.0
17:00 7.8 88.0 1022.0 3.2 ESE 4.8 0.0
17:05 7.6 89.0 1022.0 3.2 ESE 4.8 0.0
17:10 7.2 89.0 1022.1 3.2 ESE 4.8 0.0
17:15 0.0
17:20 6.8 91.0 1022.2 3.2 ESE 4.8 0.0
17:25 6.6 90.0 1022.3 3.2 ESE 4.8 0.0
17:30 6.4 92.0 1022.6 3.2 ESE 4.8 0.0
17:35 6.3 92.0 1022.5 3.2 ESE 4.8 0.0
17:40 6.2 92.0 1022.5 4.8 ESE 4.8 0.0
17:45 6.1 92.0 1022.6 3.2 ESE 4.8 0.0
17:50 5.9 92.0 1022.6 4.8 ESE 4.8 0.0
17:55 5.8 92.0 1022.7 4.8 ESE 6.4 0.0
18:00 5.7 92.0 1022.8 3.2 ESE 4.8 0.0
18:05 5.6 93.0 1022.7 3.2 ESE 4.8 0.0
18:10 5.4 93.0 1022.8 1.6 ESE 4.8 0.0
18:15 0.0
18:20 5.3 93.0 1022.6 4.8 ESE 4.8 0.0
18:25 5.2 93.0 1022.6 3.2 ESE 4.8 0.0
18:30 5.0 93.0 1022.6 3.2 ESE 6.4 0.0
18:35 4.9 94.0 1022.7 3.2 ESE 6.4 0.0
18:40 4.9 95.0 1022.7 1.6 ESE 4.8 0.0
18:45 5.1 95.0 1022.7 3.2 ESE 4.8 0.0
18:50 5.1 95.0 1022.7 3.2 ESE 4.8 0.0
18:55 5.1 95.0 1022.8 4.8 SE 6.4 0.0
19:00 5.2 96.0 1022.9 4.8 SSE 6.4 0.0
19:05 5.2 96.0 1022.9 3.2 S 4.8 0.0
19:10 5.3 96.0 1023.0 1.6 SSE 8.0 0.0
19:15 0.0
19:20 5.6 97.0 1023.0 1.6 SSE 4.8 0.0
19:25 5.7 97.0 1023.0 1.6 SSE 3.2 0.0
19:30 5.8 97.0 1022.9 0.0 SSE 3.2 0.0
19:35 5.9 97.0 1023.1 1.6 SSE 3.2 0.0
19:40 6.1 97.0 1023.1 0.0 SSE 3.2 0.0
19:45 6.3 97.0 1023.3 0.0 SSE 3.2 0.0
19:50 6.4 97.0 1023.3 0.0 SSE 1.6 0.0
Màxima 12.8 99.0 1023.7 4.8 SSE 9.7 0.2
Mínima 1.7 69.0 1020.1
Total 0.2